AUBIESAT-1 - Orbit

View from above orbital plane
View from above orbital plane
View from above satellite
View from above satellite

Ground track
Ground track

The orbit data is extracted from the following two-line orbital elements,

1 37854U 11061E   13168.13752713  .00003226  00000-0  24383-3 0  5244
2 37854 101.7179 022.6156 0234942 026.3069 089.0839 14.84402382 88455
Epoch (UTC): 17 June 2013 03:18:02
Eccentricity: 0.0234942
inclination: 101.7179°
perigee height: 451 km
apogee height: 780 km
right ascension of ascending node: 22.6156°
argument of perigee: 26.3069°
revolutions per day: 14.84402382
mean anomaly at epoch: 89.0839°
orbit number at epoch: 8845

The dashed part of the orbit path shows where the satellite is in the earth's shadow,  

Developed and maintained by Chris Peat, Heavens-Above GmbH. Please read the updated FAQ before sending e-mail. Imprint. DLR